Date,TemperatureHighF,TemperatureAvgF,TemperatureLowF,DewpointHighF,DewpointAvgF,DewpointLowF,HumidityHigh,HumidityAvg,HumidityLow,PressureMaxIn,PressureMinIn,WindSpeedMaxMPH,WindSpeedAvgMPH,GustSpeedMaxMPH,PrecipitationSumIn
2013-1-1,63.2,57.3,52.1,58.4,52.7,47.8,89,85,76,30.17,29.93,10,5,12,0.02
2013-1-2,62.8,57.6,52.9,58.7,54.2,49.2,95,88,80,30.11,29.88,14,7,19,0.02
2013-1-3,52.9,50.1,46.7,50.6,48.2,45.1,96,93,88,30.24,30.05,11,3,12,0.02
2013-1-4,54.2,46.8,38.8,45.1,38.8,30.5,94,76,44,30.32,30.22,12,5,13,0.02
2013-1-5,54.0,46.6,37.2,44.7,36.5,28.3,89,69,46,30.38,30.26,10,3,11,0.02
2013-1-6,53.7,50.4,48.4,48.0,45.4,41.4,91,83,75,30.27,30.08,7,3,9,0.01
2013-1-7,54.8,49.2,43.8,45.8,39.5,34.8,87,70,48,30.36,30.14,14,7,17,0.01
2013-1-8,67.3,54.4,45.6,57.1,48.2,40.3,87,80,69,30.36,30.27,8,5,10,0.02
2013-1-9,70.3,62.3,56.1,62.3,57.4,51.6,97,84,73,30.36,30.28,7,3,9,0.02
2013-1-10,67.3,59.0,53.4,61.0,56.4,52.8,98,92,68,30.41,30.32,12,6,17,0.00
2013-1-11,57.5,55.9,54.7,56.6,55.2,54.1,98,97,96,30.32,30.23,5,3,6,0.01
2013-1-12,73.7,66.6,60.5,65.5,61.6,58.8,97,85,69,30.14,30.09,5,3,7,0.00
2013-1-13,70.7,62.4,55.6,63.7,60.2,54.8,98,93,75,30.17,30.07,7,2,8,0.01
2013-1-14,72.0,64.3,59.0,65.3,61.5,58.4,98,91,75,30.18,30.09,13,4,17,0.00
2013-1-15,70.7,64.5,59.9,64.9,62.0,58.4,98,92,82,30.15,30.01,9,4,12,0.01
2013-1-16,72.0,66.4,62.8,64.4,62.4,61.1,98,87,71,30.05,29.95,14,7,17,0.00
2013-1-17,69.7,64.9,60.2,63.4,61.1,58.5,95,88,74,29.96,29.82,15,7,17,0.00
2013-1-22,54.6,50.3,45.6,30.5,27.5,23.5,50,41,33,30.25,30.12,13,8,16,0.00
2013-1-23,51.4,44.4,36.8,42.5,29.6,21.3,76,57,36,30.35,30.16,15,8,16,0.00
2013-1-24,64.4,51.8,36.7,46.7,37.0,21.9,75,58,32,30.44,30.08,19,9,27,0.00
2013-1-25,51.5,41.5,31.3,45.5,32.2,19.2,82,69,58,30.43,30.12,11,6,14,0.00
2013-1-26,56.9,48.0,41.2,46.1,39.7,33.9,83,73,53,30.29,30.09,12,5,15,0.00
2013-1-27,49.9,44.4,38.2,41.2,37.8,32.3,87,78,66,30.47,30.29,11,6,16,0.00
2013-1-28,59.2,49.7,43.3,54.2,45.6,38.6,95,86,74,30.43,30.26,10,4,11,0.00
2013-1-29,69.9,58.7,50.2,63.4,56.6,49.0,98,93,77,30.26,30.10,10,3,12,0.00
2013-1-30,70.8,66.3,61.6,65.2,63.2,57.7,95,90,81,30.09,29.63,29,16,35,0.00
2013-1-31,61.1,51.8,47.2,57.2,35.7,25.9,92,56,34,30.16,29.71,14,7,21,0.00
2013-2-1,55.7,49.0,39.2,35.3,27.0,15.7,58,43,24,30.34,30.14,18,8,25,0.00
2013-2-2,55.0,45.1,33.2,45.4,32.9,15.1,83,63,37,30.35,30.08,8,5,11,0.00
2013-2-3,60.5,52.4,45.7,42.2,35.5,31.7,75,54,36,30.08,29.90,16,6,20,0.00
2013-2-4,53.5,48.8,40.3,44.6,35.8,27.7,81,61,41,30.13,30.02,9,3,9,0.00
2013-2-5,65.7,54.5,44.0,51.7,47.0,40.3,94,77,50,30.06,29.94,13,5,16,0.00
2013-2-6,61.4,55.8,52.3,54.4,51.1,48.8,91,84,66,30.16,30.00,10,3,11,0.00
2013-2-7,59.0,56.2,53.4,56.5,53.9,50.4,97,92,88,30.14,29.68,10,6,18,0.93
2013-2-8,63.6,55.8,49.5,56.9,49.8,46.2,97,81,62,30.03,29.68,18,8,23,0.04
2013-2-9,58.6,50.8,44.6,50.6,38.5,27.6,87,65,31,30.32,30.03,14,6,15,0.00
2013-2-10,63.0,54.6,44.6,56.9,47.9,40.2,88,78,65,30.37,30.17,12,5,15,0.00
2013-2-11,63.5,50.8,59.0,61.4,32.0,-99.9,97,77,86,30.21,30.04,18,-167,18,1.22
2013-2-12,59.3,45.2,51.4,58.4,24.6,-99.9,98,74,77,30.10,29.86,17,-180,18,1.76
2013-2-13,72.5,59.1,49.5,64.2,53.7,47.5,98,84,46,29.87,29.67,14,6,16,0.24
2013-2-14,53.7,50.4,47.6,49.0,42.1,37.3,87,74,59,30.06,29.82,13,5,13,0.00
2013-2-15,54.6,47.6,43.6,45.4,43.3,41.1,93,86,63,30.08,30.01,7,4,10,0.00
2013-2-16,43.6,41.2,37.7,39.2,35.8,29.8,89,81,69,30.01,29.81,23,11,26,0.01
2013-2-17,46.2,39.8,32.6,31.9,20.9,8.3,79,49,26,30.29,30.01,23,10,29,0.01
2013-2-18,49.9,44.0,37.0,37.3,29.2,23.3,73,56,41,30.41,30.25,12,4,13,0.00
2013-2-19,63.1,54.0,44.9,55.8,49.1,37.5,94,84,63,30.25,29.96,22,5,25,0.20
2013-2-20,53.1,49.1,41.7,50.6,35.5,-99.9,94,62,36,30.14,30.02,11,0,14,0.00
2013-2-21,56.4,51.6,45.6,49.2,43.9,40.0,90,75,58,30.16,30.08,8,3,11,0.00
2013-2-22,62.0,55.5,49.2,60.8,51.4,45.0,98,87,71,30.17,30.01,13,7,20,0.43
2013-2-23,62.3,52.4,46.3,60.4,51.5,45.2,99,97,92,30.03,29.77,18,5,20,1.92
2013-2-24,63.5,54.8,48.7,56.1,51.2,46.7,98,88,55,29.98,29.74,13,6,15,0.00
2013-2-25,52.6,49.3,43.8,51.6,47.0,40.7,97,92,81,30.06,29.92,16,6,18,0.20
2013-2-26,69.2,61.8,49.8,64.8,58.2,47.6,98,89,63,29.93,29.57,28,12,37,0.43
2013-2-27,63.4,54.0,49.7,53.5,43.8,38.8,87,69,56,29.88,29.68,17,7,17,0.00
2013-2-28,58.7,53.9,49.0,43.9,37.5,31.7,73,55,38,29.88,29.76,16,7,17,0.00
2013-3-1,52.0,47.1,41.3,38.1,33.6,30.5,71,60,49,29.93,29.84,15,7,16,0.00
2013-3-2,49.9,45.2,40.6,37.7,34.7,31.3,78,67,50,29.91,29.82,16,6,19,0.00
2013-3-3,45.9,42.0,36.7,36.7,30.2,26.4,83,64,47,30.00,29.88,14,8,16,0.00
2013-3-4,54.7,43.5,33.6,42.6,29.2,20.4,81,59,28,30.16,30.00,12,7,14,0.00
2013-3-5,62.5,55.7,47.0,55.6,47.2,38.0,93,74,45,30.11,29.70,21,9,30,0.01
2013-3-6,59.1,48.6,43.3,55.0,33.5,25.3,87,57,41,30.06,29.68,23,13,27,0.00
2013-3-7,56.2,47.4,39.7,43.3,36.3,31.0,82,66,41,30.20,30.06,17,8,18,0.00
2013-3-8,57.4,48.5,40.2,43.1,32.9,24.4,74,56,32,30.26,30.13,16,8,19,0.00
2013-3-9,54.8,48.9,41.5,46.5,38.2,30.1,91,67,49,30.30,30.21,10,5,14,0.00
2013-3-10,61.5,53.4,45.2,47.4,42.6,33.4,93,69,36,30.26,30.19,7,4,11,0.00
2013-3-11,65.6,59.0,51.3,58.7,54.4,47.5,94,85,70,30.19,29.90,16,5,17,0.00
2013-3-12,68.2,63.5,59.5,61.9,57.8,48.1,95,83,53,29.92,29.78,20,9,30,0.04
2013-3-13,63.3,56.7,49.0,48.4,36.7,27.1,73,50,28,30.10,29.92,16,9,21,0.00
2013-3-14,54.2,47.4,39.2,37.5,27.1,21.6,68,46,29,30.29,30.07,16,9,19,0.00
2013-3-15,60.8,52.3,43.5,49.9,39.8,29.8,78,63,41,30.21,30.02,15,6,20,0.00
2013-3-16,72.4,62.2,56.9,54.2,49.2,43.8,80,64,39,30.02,29.85,18,10,21,0.00
2013-3-17,71.3,63.6,59.9,57.5,54.1,52.0,80,71,55,30.01,29.93,19,8,23,0.00
2013-3-18,65.6,60.9,58.2,62.0,57.3,54.1,95,88,73,30.06,29.83,17,5,29,0.08
2013-3-19,73.7,62.6,56.1,56.9,52.1,37.3,96,73,27,29.97,29.80,21,8,21,0.32
2013-3-20,63.0,54.9,48.6,43.0,33.0,19.2,78,45,22,30.08,29.81,14,6,15,0.00
2013-3-21,56.6,50.7,44.7,43.2,27.7,16.6,81,43,21,29.92,29.76,21,9,25,0.00
2013-3-22,51.3,45.6,38.3,41.4,29.7,20.0,69,54,39,30.08,29.92,11,5,13,0.00
2013-3-23,55.2,50.3,44.7,50.8,45.3,39.1,95,84,59,30.03,29.84,16,4,16,0.54
2013-3-24,56.4,53.5,50.5,55.4,51.9,48.3,97,94,92,29.85,29.54,21,6,27,1.26
2013-3-25,52.9,49.3,46.8,35.3,34.2,31.8,64,56,45,29.73,29.70,14,11,21,0.01
2013-4-19,75.9,72.8,68.4,71.5,68.6,66.3,96,87,82,29.95,29.84,28,14,34,1.14
2013-4-20,69.7,57.2,51.9,68.2,50.3,44.6,95,79,58,30.22,29.90,18,9,22,0.33
2013-4-21,64.8,57.8,50.4,53.2,48.8,44.0,83,72,57,30.31,30.20,17,10,26,0.00
2013-4-22,68.1,57.9,49.2,55.0,47.6,38.7,82,69,57,30.26,30.10,18,12,21,0.00
2013-4-23,63.4,56.2,53.5,56.9,49.2,-99.9,90,82,75,30.18,30.11,15,-14,20,0.00
2013-4-24,73.0,64.2,55.5,63.5,58.6,54.1,97,83,55,30.16,30.05,13,5,20,0.00
2013-4-25,72.6,67.4,66.1,66.7,64.3,62.9,94,90,77,30.15,30.06,21,6,23,0.27
2013-4-26,70.0,65.4,59.9,59.6,53.2,38.8,94,68,33,30.35,30.29,12,6,16,0.00
2013-4-27,71.2,65.3,59.4,59.5,55.7,48.8,91,72,46,30.32,30.21,8,4,16,0.00
2013-4-28,70.5,67.7,62.7,65.8,63.4,58.1,92,86,76,30.20,30.02,16,7,21,0.02
2013-4-29,74.2,68.5,64.0,67.9,65.5,61.9,96,90,78,30.04,29.94,15,6,18,0.39
2013-4-30,71.2,67.7,64.5,66.1,63.8,60.0,97,88,72,30.07,29.93,12,6,14,0.00
2013-5-1,71.0,64.8,60.2,62.9,60.2,57.3,94,85,69,30.15,30.04,15,8,18,0.00
2013-5-2,71.1,66.8,63.1,64.1,62.7,59.0,91,87,77,30.14,30.08,16,10,20,0.01
2013-5-3,67.5,63.7,60.5,62.3,59.0,52.3,96,85,69,30.08,29.98,16,11,24,0.05
2013-5-4,64.5,62.2,59.5,61.4,58.6,54.8,94,88,78,29.99,29.88,14,11,22,0.07
2013-5-5,70.1,66.1,62.9,65.5,63.2,61.0,97,90,78,29.88,29.76,12,7,17,0.65
2013-5-6,68.5,65.3,62.7,63.2,57.6,50.6,97,77,54,29.90,29.80,14,7,19,0.01
2013-5-7,66.4,62.5,57.5,60.8,55.8,51.7,89,79,68,29.95,29.88,13,4,19,0.08
2013-5-8,72.9,66.8,59.6,63.4,57.6,52.4,86,73,57,30.03,29.94,17,8,20,0.00
2013-5-9,79.5,72.0,66.1,65.5,62.8,59.0,89,74,51,30.07,29.99,15,8,17,0.00
2013-5-10,77.7,72.6,65.4,69.0,64.3,61.5,89,76,63,30.08,29.99,15,8,19,0.00
2013-5-11,78.5,73.9,70.8,69.7,67.4,60.7,94,81,55,30.01,29.86,17,8,20,0.00
2013-5-12,79.5,74.4,69.9,68.9,61.7,53.3,88,67,43,29.98,29.82,12,6,18,0.01
2013-5-13,71.3,65.2,58.2,54.7,45.9,39.5,72,51,32,30.12,29.96,16,10,19,0.00
2013-5-14,69.0,64.4,55.5,57.9,50.7,43.7,84,62,42,30.24,30.10,13,6,15,0.00
2013-5-15,76.0,71.1,66.7,63.0,60.3,55.5,75,69,60,30.15,30.00,17,10,23,0.00
2013-5-16,82.7,74.3,68.9,68.7,63.9,59.9,85,71,52,30.05,29.97,17,8,24,0.00
2013-5-17,80.6,74.0,69.6,70.6,67.0,63.0,93,79,59,30.10,30.01,14,8,17,0.00
2013-5-18,78.5,74.3,70.8,70.5,68.7,65.8,93,83,66,30.14,30.06,13,7,17,0.00
2013-5-19,77.1,74.3,68.6,71.7,69.9,64.2,93,86,80,30.11,30.04,11,6,15,0.00
2013-5-20,77.7,62.2,73.6,71.8,41.6,-99.9,93,72,76,30.09,30.01,16,-164,19,0.05
2013-5-21,75.4,72.8,67.0,72.8,69.7,64.1,96,90,75,30.08,29.96,14,5,14,0.60
2013-5-22,78.9,73.8,68.9,72.7,70.0,67.7,97,88,76,30.00,29.95,10,4,13,0.00
2013-5-23,79.6,77.3,75.3,72.7,71.6,70.5,90,83,77,29.87,29.82,17,11,22,0.19
2013-5-24,79.3,74.9,66.8,71.5,59.8,45.7,87,61,37,30.14,29.83,21,11,24,0.00
2013-5-25,73.3,65.6,56.8,58.8,47.4,38.6,72,53,29,30.27,30.13,14,8,17,0.00
2013-5-26,76.5,71.2,65.5,64.2,60.2,56.7,81,69,51,30.24,30.13,18,6,20,0.00
2013-5-27,76.9,73.1,65.4,66.5,64.5,62.8,92,75,63,30.23,30.15,12,5,17,0.00
2013-5-28,78.1,74.7,68.9,69.6,66.9,64.0,93,77,65,30.24,30.15,11,6,17,0.00
2013-5-29,77.7,75.5,73.7,69.0,67.3,65.9,82,76,68,30.24,30.13,13,7,17,0.00
2013-5-30,80.2,76.5,72.4,73.2,70.8,67.5,91,83,76,30.23,30.15,10,4,17,0.00
2013-5-31,79.7,77.2,73.8,73.1,72.1,70.5,93,85,77,30.21,30.12,13,7,17,0.00
2013-6-1,79.7,77.4,75.2,72.4,71.4,70.6,88,82,76,30.13,30.05,12,8,17,0.00
2013-6-2,77.6,76.3,75.7,72.3,71.6,70.9,88,85,81,30.08,29.98,13,10,18,0.00
2013-6-6,78.4,76.3,72.0,74.6,72.8,69.7,96,89,80,29.91,29.67,15,7,22,2.52
2013-6-7,83.9,78.0,74.4,75.5,73.2,70.2,94,86,66,29.85,29.50,32,16,42,0.25
2013-6-8,83.2,79.7,77.2,75.7,74.1,71.6,91,83,71,30.08,29.84,17,10,18,0.00
2013-6-9,82.3,79.2,77.1,76.7,74.9,72.6,93,87,75,30.12,30.05,18,9,22,0.00
2013-6-10,82.3,78.9,71.4,76.1,74.6,68.3,94,87,79,30.09,29.95,20,12,24,0.37
2013-6-11,86.4,78.8,73.6,76.9,73.8,71.0,95,85,66,30.02,29.91,16,7,25,0.89
2013-6-12,91.6,85.0,78.7,79.7,76.5,70.8,94,77,55,29.98,29.89,15,5,19,0.00
2013-6-13,91.8,85.6,80.9,79.9,78.0,73.7,92,79,57,29.91,29.71,17,9,23,0.00
2013-6-14,84.4,83.4,81.5,78.1,77.1,74.3,85,81,79,29.72,29.70,11,5,13,0.00
2013-6-17,83.0,81.7,79.3,75.3,72.9,70.4,80,75,68,30.05,29.96,15,8,17,0.00
2013-6-18,86.8,83.2,76.5,77.5,75.0,71.4,89,77,65,29.93,29.84,17,9,22,0.21
2013-6-19,81.6,69.9,77.8,74.4,52.4,-99.9,87,72,76,29.94,-32.77,14,-117,24,0.00
2013-6-21,81.1,78.8,75.4,73.4,72.7,71.4,89,82,74,30.11,30.08,9,4,14,0.00
2013-6-22,81.0,76.8,72.4,75.2,72.3,70.7,95,86,73,30.15,30.07,11,6,14,0.00
2013-6-23,82.6,79.5,75.6,76.7,75.0,73.4,94,86,79,30.16,30.10,11,5,15,0.00
2013-6-24,83.9,77.1,78.5,76.0,65.5,-99.9,90,77,71,30.20,-32.77,13,-48,14,0.00
2013-6-26,85.8,80.4,74.9,77.1,74.2,68.7,93,82,67,30.06,29.93,17,8,19,0.28
2013-6-27,87.7,81.8,78.8,79.0,76.5,69.6,92,84,66,29.97,29.78,16,10,21,0.16
2013-6-28,86.5,82.6,78.9,79.1,76.1,72.1,88,81,73,29.82,29.65,21,12,29,0.00
2013-6-29,84.3,79.9,75.2,76.7,74.0,70.1,91,82,73,29.75,29.67,18,11,21,0.06
2013-6-30,82.3,78.4,73.8,77.2,74.3,70.4,94,87,77,29.83,29.71,21,9,22,1.36
2013-7-1,81.6,79.4,75.3,77.0,74.9,71.8,92,86,77,29.99,29.80,22,15,26,0.18
2013-7-2,81.1,79.3,75.6,76.6,74.3,71.1,90,85,78,30.13,29.98,21,14,25,0.12
2013-7-3,82.4,79.9,76.2,77.5,75.8,72.6,92,87,80,30.19,30.09,20,11,22,0.31
2013-7-4,83.6,81.5,79.7,77.7,76.4,72.8,88,85,77,30.20,30.15,20,12,23,0.02
2013-7-5,84.3,81.7,77.1,78.4,76.3,74.5,93,84,79,30.21,30.14,25,10,25,0.13
2013-7-6,83.7,81.1,77.4,76.6,75.0,72.7,91,82,75,30.20,30.11,17,10,21,0.00
2013-7-7,83.7,81.2,79.1,75.5,74.0,72.7,86,79,72,30.17,30.08,13,10,19,0.00
2013-7-8,84.3,80.7,75.5,75.5,73.4,71.2,92,79,67,30.17,30.10,13,6,19,0.00
2013-7-9,84.6,81.6,78.0,76.0,74.3,71.8,88,79,68,30.17,30.08,14,8,19,0.00
2013-7-10,84.7,81.6,78.8,75.3,74.0,72.2,85,78,68,30.11,29.96,12,8,19,0.00
2013-7-11,83.4,81.6,80.5,76.6,75.1,73.5,83,81,76,30.00,29.87,20,14,22,0.00
2013-7-12,81.8,76.9,74.2,76.1,73.3,71.7,93,89,82,29.91,29.85,13,5,21,0.15